Time,TemperatureF,DewpointF,PressureIn,WindDirection,WindDirectionDegrees,WindSpeedMPH,WindSpeedGustMPH,Humidity,HourlyPrecipIn,Conditions,Clouds,dailyrainin,SolarRadiationWatts/m^2,SoftwareType,DateUTC
2013-10-07 00:01:00,63.4,62.5,25.96,SSE,155,0.0,0.0,97,0.00,,,0.00,0,Wunderground v.1.15,2013-10-07 06:01:00,
2013-10-07 00:10:00,63.3,62.4,25.95,SSE,155,0.0,0.0,97,0.00,,,0.01,0,Wunderground v.1.15,2013-10-07 06:10:00,
2013-10-07 00:16:00,63.3,62.4,25.95,SSE,155,0.0,0.0,97,0.00,,,0.01,0,Wunderground v.1.15,2013-10-07 06:16:00,
2013-10-07 00:25:00,63.1,62.2,25.95,SSE,155,0.0,0.0,97,0.00,,,0.01,0,Wunderground v.1.15,2013-10-07 06:25:00,
2013-10-07 00:35:00,63.0,62.1,25.94,SSE,155,0.0,0.0,97,0.00,,,0.01,0,Wunderground v.1.15,2013-10-07 06:35:00,
2013-10-07 00:41:00,63.0,62.1,25.94,SSE,155,0.0,0.0,97,0.00,,,0.01,0,Wunderground v.1.15,2013-10-07 06:41:00,
2013-10-07 00:46:00,63.0,62.1,25.94,SSE,155,0.0,0.0,97,0.00,,,0.01,0,Wunderground v.1.15,2013-10-07 06:46:00,
2013-10-07 00:55:00,62.8,61.9,25.93,SSE,155,0.0,0.0,97,0.00,,,0.01,0,Wunderground v.1.15,2013-10-07 06:55:00,
2013-10-07 01:01:00,62.6,61.7,25.93,SSE,155,0.0,0.0,97,0.00,,,0.01,0,Wunderground v.1.15,2013-10-07 07:01:00,
2013-10-07 01:10:00,62.5,61.6,25.93,SSE,155,0.0,0.0,97,0.00,,,0.01,0,Wunderground v.1.15,2013-10-07 07:10:00,
2013-10-07 01:15:00,62.5,61.6,25.92,SSE,155,0.0,0.0,97,0.00,,,0.01,0,Wunderground v.1.15,2013-10-07 07:15:00,
2013-10-07 01:26:00,62.5,61.6,25.92,SSE,155,0.0,0.0,97,0.00,,,0.01,0,Wunderground v.1.15,2013-10-07 07:26:00,
2013-10-07 01:31:00,62.3,61.4,25.92,SSE,155,0.0,0.0,97,0.00,,,0.01,0,Wunderground v.1.15,2013-10-07 07:31:00,
2013-10-07 01:40:00,62.3,61.4,25.92,SSE,155,0.0,0.0,97,0.00,,,0.01,0,Wunderground v.1.15,2013-10-07 07:40:00,
2013-10-07 01:45:00,62.2,61.3,25.91,SSE,155,0.0,1.0,97,0.00,,,0.01,0,Wunderground v.1.15,2013-10-07 07:45:00,
2013-10-07 01:55:00,62.2,61.3,25.91,ESE,107,0.0,0.0,97,0.00,,,0.01,0,Wunderground v.1.15,2013-10-07 07:55:00,
2013-10-07 02:01:00,62.2,61.3,25.91,ESE,107,0.0,0.0,97,0.00,,,0.01,0,Wunderground v.1.15,2013-10-07 08:01:00,
2013-10-07 02:11:00,62.2,61.3,25.91,ESE,107,0.0,0.0,97,0.00,,,0.01,0,Wunderground v.1.15,2013-10-07 08:11:00,
2013-10-07 02:16:00,62.2,61.3,25.92,SSE,154,0.0,0.0,97,0.00,,,0.01,0,Wunderground v.1.15,2013-10-07 08:16:00,
2013-10-07 02:25:00,62.3,61.4,25.92,SSE,154,0.0,0.0,97,0.00,,,0.01,0,Wunderground v.1.15,2013-10-07 08:25:00,
2013-10-07 02:30:00,62.5,61.6,25.92,East,84,0.0,0.0,97,0.00,,,0.01,0,Wunderground v.1.15,2013-10-07 08:30:00,
2013-10-07 02:40:00,63.1,60.1,25.92,East,101,1.0,2.0,90,0.00,,,0.01,0,Wunderground v.1.15,2013-10-07 08:40:00,
2013-10-07 02:46:00,63.6,59.0,25.92,NNE,26,2.0,2.0,85,0.00,,,0.01,0,Wunderground v.1.15,2013-10-07 08:46:00,
2013-10-07 02:55:00,64.2,58.9,25.92,SSE,163,2.0,4.0,83,0.00,,,0.01,0,Wunderground v.1.15,2013-10-07 08:55:00,
2013-10-07 03:01:00,64.4,59.5,25.92,East,79,1.0,1.0,84,0.00,,,0.01,0,Wunderground v.1.15,2013-10-07 09:01:00,
2013-10-07 03:10:00,64.4,59.5,25.92,ESE,123,1.0,1.0,84,0.00,,,0.01,0,Wunderground v.1.15,2013-10-07 09:10:00,
2013-10-07 03:16:00,64.4,59.5,25.92,East,91,1.0,2.0,84,0.00,,,0.01,0,Wunderground v.1.15,2013-10-07 09:16:00,
2013-10-07 03:26:00,64.2,59.3,25.92,ENE,59,1.0,1.0,84,0.00,,,0.01,0,Wunderground v.1.15,2013-10-07 09:26:00,
2013-10-07 03:31:00,64.2,59.6,25.92,ESE,103,1.0,1.0,85,0.00,,,0.01,0,Wunderground v.1.15,2013-10-07 09:31:00,
2013-10-07 03:40:00,64.1,59.5,25.93,SSE,161,1.0,4.0,85,0.00,,,0.01,0,Wunderground v.1.15,2013-10-07 09:40:00,
2013-10-07 03:50:00,64.4,59.8,25.92,SE,144,2.0,2.0,85,0.00,,,0.01,0,Wunderground v.1.15,2013-10-07 09:50:00,
2013-10-07 03:56:00,64.2,59.9,25.93,SE,144,1.0,2.0,86,0.00,,,0.01,0,Wunderground v.1.15,2013-10-07 09:56:00,
2013-10-07 04:01:00,64.1,60.2,25.93,SE,144,0.0,0.0,87,0.00,,,0.01,0,Wunderground v.1.15,2013-10-07 10:01:00,
2013-10-07 04:10:00,63.9,60.0,25.93,SSE,153,1.0,1.0,87,0.00,,,0.01,0,Wunderground v.1.15,2013-10-07 10:10:00,
2013-10-07 04:15:00,63.8,59.9,25.93,SSE,151,1.0,1.0,87,0.00,,,0.01,0,Wunderground v.1.15,2013-10-07 10:15:00,
2013-10-07 04:26:00,63.6,60.0,25.93,SSE,152,1.0,1.0,88,0.00,,,0.01,0,Wunderground v.1.15,2013-10-07 10:26:00,
2013-10-07 04:31:00,63.6,60.0,25.93,SSE,155,1.0,2.0,88,0.00,,,0.01,0,Wunderground v.1.15,2013-10-07 10:31:00,
2013-10-07 04:41:00,63.6,60.0,25.93,SSE,155,2.0,2.0,88,0.00,,,0.01,0,Wunderground v.1.15,2013-10-07 10:41:00,
2013-10-07 04:50:00,63.6,60.0,25.94,East,82,0.0,0.0,88,0.00,,,0.01,0,Wunderground v.1.15,2013-10-07 10:50:00,
2013-10-07 04:55:00,63.4,59.8,25.94,East,82,0.0,0.0,88,0.00,,,0.01,0,Wunderground v.1.15,2013-10-07 10:55:00,
2013-10-07 05:00:00,63.3,59.7,25.94,East,97,0.0,2.0,88,0.00,,,0.01,0,Wunderground v.1.15,2013-10-07 11:00:00,
2013-10-07 05:06:00,63.3,60.0,25.94,East,97,0.0,2.0,89,0.00,,,0.01,0,Wunderground v.1.15,2013-10-07 11:06:00,
2013-10-07 05:16:00,63.1,59.8,25.94,SE,137,0.0,1.0,89,0.00,,,0.01,0,Wunderground v.1.15,2013-10-07 11:16:00,
2013-10-07 05:25:00,63.1,60.1,25.95,SE,138,0.0,1.0,90,0.00,,,0.01,0,Wunderground v.1.15,2013-10-07 11:25:00,
2013-10-07 05:30:00,63.1,60.1,25.95,SE,137,0.0,1.0,90,0.00,,,0.01,5,Wunderground v.1.15,2013-10-07 11:30:00,
2013-10-07 05:36:00,63.3,60.3,25.95,SSE,147,1.0,2.0,90,0.00,,,0.01,11,Wunderground v.1.15,2013-10-07 11:36:00,
2013-10-07 05:46:00,63.9,60.3,25.96,SE,145,2.0,4.0,88,0.00,,,0.01,26,Wunderground v.1.15,2013-10-07 11:46:00,
2013-10-07 05:55:00,64.2,60.2,25.95,SE,145,0.0,1.0,87,0.00,,,0.01,40,Wunderground v.1.15,2013-10-07 11:55:00,
2013-10-07 06:01:00,64.2,60.2,25.96,SSE,149,1.0,1.0,87,0.00,,,0.01,49,Wunderground v.1.15,2013-10-07 12:01:00,
2013-10-07 06:10:00,64.4,60.1,25.96,SSE,150,1.0,1.0,86,0.00,,,0.01,67,Wunderground v.1.15,2013-10-07 12:10:00,
2013-10-07 06:20:00,64.9,60.6,25.96,SSE,150,1.0,1.0,86,0.00,,,0.01,93,Wunderground v.1.15,2013-10-07 12:20:00,
2013-10-07 06:26:00,65.2,60.9,25.96,SE,143,1.0,6.0,86,0.00,,,0.01,95,Wunderground v.1.15,2013-10-07 12:26:00,
2013-10-07 06:36:00,65.9,60.6,25.97,ESE,103,1.0,2.0,83,0.00,,,0.01,174,Wunderground v.1.15,2013-10-07 12:36:00,
2013-10-07 06:45:00,66.8,60.8,25.97,SE,134,0.0,0.0,81,0.00,,,0.01,232,Wunderground v.1.15,2013-10-07 12:45:00,
2013-10-07 06:51:00,67.3,60.9,25.97,SE,134,0.0,0.0,80,0.00,,,0.01,237,Wunderground v.1.15,2013-10-07 12:51:00,
2013-10-07 07:01:00,68.5,60.3,25.97,SSE,151,1.0,1.0,75,0.00,,,0.01,246,Wunderground v.1.15,2013-10-07 13:01:00,
2013-10-07 07:10:00,69.5,60.8,25.97,SE,138,1.0,1.0,74,0.00,,,0.01,243,Wunderground v.1.15,2013-10-07 13:10:00,
2013-10-07 07:15:00,69.7,60.7,25.97,East,95,2.0,2.0,73,0.00,,,0.01,308,Wunderground v.1.15,2013-10-07 13:15:00,
2013-10-07 07:21:00,70.2,61.1,25.97,ESE,115,2.0,2.0,73,0.00,,,0.01,229,Wunderground v.1.15,2013-10-07 13:21:00,
2013-10-07 07:30:00,70.5,61.0,25.98,ESE,109,2.0,2.0,72,0.00,,,0.01,420,Wunderground v.1.15,2013-10-07 13:30:00,
2013-10-07 07:41:00,71.0,61.1,25.98,ENE,63,3.0,6.0,71,0.00,,,0.01,476,Wunderground v.1.15,2013-10-07 13:41:00,
2013-10-07 07:46:00,71.2,60.9,25.98,East,84,3.0,6.0,70,0.00,,,0.01,487,Wunderground v.1.15,2013-10-07 13:46:00,
2013-10-07 07:55:00,71.5,61.6,25.98,East,92,3.0,4.0,71,0.00,,,0.01,496,Wunderground v.1.15,2013-10-07 13:55:00,
2013-10-07 08:01:00,72.0,61.3,25.98,NNE,18,2.0,6.0,69,0.00,,,0.01,517,Wunderground v.1.15,2013-10-07 14:01:00,
2013-10-07 08:10:00,71.7,61.8,25.98,NNW,343,4.0,4.0,71,0.00,,,0.01,524,Wunderground v.1.15,2013-10-07 14:10:00,
2013-10-07 08:16:00,71.4,61.5,25.97,East,82,3.0,4.0,71,0.00,,,0.01,570,Wunderground v.1.15,2013-10-07 14:16:00,
2013-10-07 08:25:00,72.2,61.5,25.97,North,5,2.0,4.0,69,0.00,,,0.01,585,Wunderground v.1.15,2013-10-07 14:25:00,
2013-10-07 08:30:00,72.6,61.4,25.98,NW,321,3.0,6.0,68,0.00,,,0.01,605,Wunderground v.1.15,2013-10-07 14:30:00,
2013-10-07 08:41:00,73.8,61.7,25.98,NW,311,3.0,3.0,66,0.00,,,0.01,652,Wunderground v.1.15,2013-10-07 14:41:00,
2013-10-07 08:50:00,73.8,61.7,25.98,East,85,2.0,3.0,66,0.00,,,0.01,643,Wunderground v.1.15,2013-10-07 14:50:00,
2013-10-07 08:55:00,73.8,61.7,25.98,North,355,2.0,3.0,66,0.00,,,0.01,679,Wunderground v.1.15,2013-10-07 14:55:00,
2013-10-07 09:00:00,74.1,61.6,25.98,East,82,2.0,2.0,65,0.00,,,0.01,773,Wunderground v.1.15,2013-10-07 15:00:00,
2013-10-07 09:06:00,74.3,61.8,25.98,NNW,332,2.0,4.0,65,0.00,,,0.01,251,Wunderground v.1.15,2013-10-07 15:06:00,
2013-10-07 09:15:00,74.6,61.6,25.98,NNW,340,2.0,2.0,64,0.00,,,0.01,768,Wunderground v.1.15,2013-10-07 15:15:00,
2013-10-07 09:25:00,76.0,63.4,25.97,ENE,62,3.0,3.0,65,0.00,,,0.01,865,Wunderground v.1.15,2013-10-07 15:25:00,
2013-10-07 09:31:00,75.9,62.4,25.97,NNW,331,2.0,2.0,63,0.00,,,0.01,847,Wunderground v.1.15,2013-10-07 15:31:00,
2013-10-07 09:40:00,76.2,62.2,25.97,NE,40,2.0,2.0,62,0.00,,,0.01,849,Wunderground v.1.15,2013-10-07 15:40:00,
2013-10-07 09:45:00,76.6,63.1,25.97,ENE,78,3.0,3.0,63,0.00,,,0.01,926,Wunderground v.1.15,2013-10-07 15:45:00,
2013-10-07 09:51:00,76.6,62.6,25.97,East,89,3.0,5.0,62,0.00,,,0.01,889,Wunderground v.1.15,2013-10-07 15:51:00,
2013-10-07 10:01:00,76.7,62.7,25.96,East,84,4.0,4.0,62,0.00,,,0.01,886,Wunderground v.1.15,2013-10-07 16:01:00,
2013-10-07 10:11:00,76.7,62.7,25.96,NNE,28,3.0,5.0,62,0.00,,,0.01,891,Wunderground v.1.15,2013-10-07 16:11:00,
2013-10-07 10:20:00,77.5,62.5,25.96,West,275,4.0,4.0,60,0.00,,,0.01,1035,Wunderground v.1.15,2013-10-07 16:20:00,
2013-10-07 10:31:00,76.9,62.9,25.96,NNW,328,4.0,4.0,62,0.00,,,0.01,1032,Wunderground v.1.15,2013-10-07 16:31:00,
2013-10-07 10:40:00,77.8,63.7,25.96,NE,42,3.0,5.0,62,0.00,,,0.01,958,Wunderground v.1.15,2013-10-07 16:40:00,
2013-10-07 10:46:00,77.5,63.0,25.95,NW,314,3.0,5.0,61,0.00,,,0.01,960,Wunderground v.1.15,2013-10-07 16:46:00,
2013-10-07 10:55:00,77.3,63.3,25.95,East,100,4.0,4.0,62,0.00,,,0.01,942,Wunderground v.1.15,2013-10-07 16:55:00,
2013-10-07 11:01:00,77.8,63.3,25.95,North,349,3.0,3.0,61,0.00,,,0.01,925,Wunderground v.1.15,2013-10-07 17:01:00,
2013-10-07 11:10:00,77.1,62.6,25.94,ENE,67,5.0,5.0,61,0.00,,,0.01,909,Wunderground v.1.15,2013-10-07 17:10:00,
2013-10-07 11:15:00,76.9,63.3,25.94,NW,320,5.0,7.0,63,0.00,,,0.01,898,Wunderground v.1.15,2013-10-07 17:15:00,
2013-10-07 11:25:00,77.3,63.3,25.94,NNE,15,5.0,7.0,62,0.00,,,0.01,898,Wunderground v.1.15,2013-10-07 17:25:00,
2013-10-07 11:31:00,77.5,63.5,25.93,SSE,163,4.0,5.0,62,0.00,,,0.01,898,Wunderground v.1.15,2013-10-07 17:31:00,
2013-10-07 11:41:00,78.0,63.0,25.93,SSE,158,5.0,5.0,60,0.00,,,0.01,902,Wunderground v.1.15,2013-10-07 17:41:00,
2013-10-07 11:46:00,78.0,63.9,25.93,NE,34,4.0,5.0,62,0.00,,,0.01,902,Wunderground v.1.15,2013-10-07 17:46:00,
2013-10-07 11:55:00,77.6,63.5,25.92,NE,51,5.0,5.0,62,0.00,,,0.01,940,Wunderground v.1.15,2013-10-07 17:55:00,
2013-10-07 12:01:00,78.7,65.0,25.92,ENE,77,5.0,5.0,63,0.00,,,0.01,911,Wunderground v.1.15,2013-10-07 18:01:00,
2013-10-07 12:16:00,78.7,63.6,25.91,NW,304,5.0,6.0,60,0.00,,,0.01,923,Wunderground v.1.15,2013-10-07 18:16:00,
2013-10-07 12:25:00,79.1,64.0,25.92,NE,40,5.0,5.0,60,0.00,,,0.01,954,Wunderground v.1.15,2013-10-07 18:25:00,
2013-10-07 12:31:00,79.1,63.5,25.91,SE,145,5.0,5.0,59,0.00,,,0.01,988,Wunderground v.1.15,2013-10-07 18:31:00,
2013-10-07 12:41:00,78.4,63.4,25.91,NNE,25,5.0,5.0,60,0.00,,,0.01,422,Wunderground v.1.15,2013-10-07 18:41:00,
2013-10-07 12:50:00,76.6,64.4,25.90,SE,140,5.0,5.0,66,0.00,,,0.01,179,Wunderground v.1.15,2013-10-07 18:50:00,
2013-10-07 13:01:00,76.4,63.8,25.89,ENE,72,5.0,5.0,65,0.00,,,0.01,867,Wunderground v.1.15,2013-10-07 19:01:00,
2013-10-07 13:10:00,77.6,64.0,25.89,NNW,348,6.0,6.0,63,0.00,,,0.01,888,Wunderground v.1.15,2013-10-07 19:10:00,
2013-10-07 13:21:00,77.1,64.0,25.89,East,91,5.0,6.0,64,0.00,,,0.01,1037,Wunderground v.1.15,2013-10-07 19:21:00,
2013-10-07 13:26:00,77.5,64.4,25.89,NW,326,5.0,5.0,64,0.00,,,0.01,418,Wunderground v.1.15,2013-10-07 19:26:00,
2013-10-07 13:31:00,76.2,64.0,25.88,SSE,167,6.0,6.0,66,0.00,,,0.01,427,Wunderground v.1.15,2013-10-07 19:31:00,
2013-10-07 13:40:00,74.3,64.3,25.89,WSW,258,6.0,6.0,71,0.00,,,0.01,176,Wunderground v.1.15,2013-10-07 19:40:00,
2013-10-07 13:51:00,72.6,66.8,25.89,East,101,5.0,5.0,82,0.47,,,0.04,134,Wunderground v.1.15,2013-10-07 19:51:00,
2013-10-07 14:01:00,70.3,65.9,25.89,NE,38,5.0,5.0,86,0.05,,,0.04,23,Wunderground v.1.15,2013-10-07 20:01:00,
2013-10-07 14:10:00,69.5,65.1,25.90,NW,308,4.0,4.0,86,0.00,,,0.04,23,Wunderground v.1.15,2013-10-07 20:10:00,
2013-10-07 14:15:00,69.5,65.1,25.89,NE,49,3.0,4.0,86,0.00,,,0.04,16,Wunderground v.1.15,2013-10-07 20:15:00,
2013-10-07 14:26:00,69.5,65.1,25.90,East,82,2.0,2.0,86,0.00,,,0.04,11,Wunderground v.1.15,2013-10-07 20:26:00,
2013-10-07 14:36:00,69.7,65.3,25.90,West,276,1.0,2.0,86,0.00,,,0.04,9,Wunderground v.1.15,2013-10-07 20:36:00,
2013-10-07 14:46:00,69.3,64.3,25.90,WSW,242,1.0,1.0,84,0.00,,,0.04,12,Wunderground v.1.15,2013-10-07 20:46:00,
2013-10-07 14:51:00,69.5,65.1,25.90,West,261,1.0,1.0,86,0.00,,,0.05,14,Wunderground v.1.15,2013-10-07 20:51:00,
2013-10-07 15:01:00,69.2,64.8,25.90,NW,308,1.0,1.0,86,0.11,,,0.06,26,Wunderground v.1.15,2013-10-07 21:01:00,
2013-10-07 15:11:00,68.7,64.3,25.91,WSW,257,1.0,1.0,86,0.04,,,0.06,18,Wunderground v.1.15,2013-10-07 21:11:00,
2013-10-07 15:16:00,68.3,64.3,25.90,SW,236,1.0,1.0,87,0.00,,,0.06,21,Wunderground v.1.15,2013-10-07 21:16:00,
2013-10-07 15:21:00,68.3,64.3,25.90,WNW,289,1.0,2.0,87,0.00,,,0.06,33,Wunderground v.1.15,2013-10-07 21:21:00,
2013-10-07 15:31:00,67.8,63.8,25.90,WNW,294,1.0,1.0,87,0.00,,,0.06,53,Wunderground v.1.15,2013-10-07 21:31:00,
2013-10-07 15:40:00,67.5,64.1,25.90,WNW,290,1.0,1.0,89,0.00,,,0.06,93,Wunderground v.1.15,2013-10-07 21:40:00,
2013-10-07 15:46:00,67.8,64.8,25.90,WNW,290,0.0,1.0,90,0.00,,,0.06,104,Wunderground v.1.15,2013-10-07 21:46:00,
2013-10-07 15:56:00,68.0,64.6,25.90,WNW,291,0.0,1.0,89,0.00,,,0.06,98,Wunderground v.1.15,2013-10-07 21:56:00,
2013-10-07 16:01:00,67.8,64.1,25.90,WNW,290,0.0,0.0,88,0.00,,,0.06,81,Wunderground v.1.15,2013-10-07 22:01:00,
2013-10-07 16:11:00,68.2,64.5,25.90,WNW,291,0.0,0.0,88,0.00,,,0.06,54,Wunderground v.1.15,2013-10-07 22:11:00,
2013-10-07 16:16:00,68.2,64.2,25.90,WNW,291,0.0,0.0,87,0.00,,,0.06,44,Wunderground v.1.15,2013-10-07 22:16:00,
2013-10-07 16:25:00,68.3,63.9,25.90,SSE,153,1.0,1.0,86,0.00,,,0.06,39,Wunderground v.1.15,2013-10-07 22:25:00,
2013-10-07 16:30:00,68.3,63.9,25.90,SSE,149,0.0,0.0,86,0.00,,,0.06,32,Wunderground v.1.15,2013-10-07 22:30:00,
2013-10-07 16:41:00,68.3,63.9,25.90,SSE,149,0.0,0.0,86,0.00,,,0.06,23,Wunderground v.1.15,2013-10-07 22:41:00,
2013-10-07 16:46:00,68.5,64.1,25.91,SSE,150,0.0,0.0,86,0.00,,,0.06,19,Wunderground v.1.15,2013-10-07 22:46:00,
2013-10-07 16:55:00,68.5,63.8,25.91,SSE,150,0.0,0.0,85,0.00,,,0.06,16,Wunderground v.1.15,2013-10-07 22:55:00,
2013-10-07 17:01:00,68.3,63.6,25.90,SSE,150,0.0,0.0,85,0.00,,,0.06,12,Wunderground v.1.15,2013-10-07 23:01:00,
2013-10-07 17:10:00,68.3,63.9,25.90,SSE,150,0.0,0.0,86,0.00,,,0.06,5,Wunderground v.1.15,2013-10-07 23:10:00,
2013-10-07 17:15:00,68.3,63.9,25.90,SSE,150,0.0,0.0,86,0.00,,,0.06,0,Wunderground v.1.15,2013-10-07 23:15:00,
2013-10-07 17:26:00,68.3,63.9,25.91,NNW,330,1.0,1.0,86,0.00,,,0.06,0,Wunderground v.1.15,2013-10-07 23:26:00,
2013-10-07 17:31:00,68.3,63.9,25.91,NNW,330,1.0,1.0,86,0.00,,,0.06,0,Wunderground v.1.15,2013-10-07 23:31:00,
2013-10-07 17:40:00,68.7,64.3,25.92,NNW,330,0.0,0.0,86,0.00,,,0.06,0,Wunderground v.1.15,2013-10-07 23:40:00,
2013-10-07 17:45:00,68.7,64.3,25.92,NNW,330,0.0,0.0,86,0.00,,,0.06,0,Wunderground v.1.15,2013-10-07 23:45:00,
2013-10-07 17:55:00,69.0,64.3,25.92,NNW,330,0.0,0.0,85,0.00,,,0.06,0,Wunderground v.1.15,2013-10-07 23:55:00,
2013-10-07 18:01:00,69.0,64.0,25.92,NNW,330,0.0,0.0,84,0.00,,,0.06,0,Wunderground v.1.15,2013-10-08 00:01:00,
2013-10-07 18:11:00,69.3,63.6,25.93,NNW,330,0.0,0.0,82,0.00,,,0.06,0,Wunderground v.1.15,2013-10-08 00:11:00,
2013-10-07 18:16:00,69.3,63.6,25.93,NNW,330,0.0,0.0,82,0.00,,,0.06,0,Wunderground v.1.15,2013-10-08 00:16:00,
2013-10-07 18:26:00,69.5,64.5,25.93,NNW,330,0.0,0.0,84,0.00,,,0.06,0,Wunderground v.1.15,2013-10-08 00:26:00,
2013-10-07 18:31:00,69.5,64.5,25.93,NNW,330,0.0,0.0,84,0.00,,,0.06,0,Wunderground v.1.15,2013-10-08 00:31:00,
2013-10-07 18:40:00,69.2,63.5,25.94,ESE,105,1.0,1.0,82,0.00,,,0.06,0,Wunderground v.1.15,2013-10-08 00:40:00,
2013-10-07 18:45:00,69.2,63.8,25.94,ESE,105,0.0,1.0,83,0.00,,,0.06,0,Wunderground v.1.15,2013-10-08 00:45:00,
2013-10-07 18:51:00,69.2,63.5,25.94,ESE,105,0.0,0.0,82,0.00,,,0.06,0,Wunderground v.1.15,2013-10-08 00:51:00,
2013-10-07 19:01:00,69.0,64.0,25.94,NW,307,0.0,2.0,84,0.00,,,0.06,0,Wunderground v.1.15,2013-10-08 01:01:00,
2013-10-07 19:10:00,68.7,63.7,25.96,NNE,17,1.0,1.0,84,0.00,,,0.06,0,Wunderground v.1.15,2013-10-08 01:10:00,
2013-10-07 19:16:00,68.7,63.7,25.96,ENE,59,1.0,1.0,84,0.00,,,0.06,0,Wunderground v.1.15,2013-10-08 01:16:00,
2013-10-07 19:25:00,68.7,63.3,25.96,East,79,1.0,1.0,83,0.00,,,0.06,0,Wunderground v.1.15,2013-10-08 01:25:00,
2013-10-07 19:30:00,68.7,63.3,25.97,NW,323,1.0,1.0,83,0.00,,,0.06,0,Wunderground v.1.15,2013-10-08 01:30:00,
2013-10-07 19:36:00,68.7,63.3,25.97,NW,324,1.0,1.0,83,0.00,,,0.06,0,Wunderground v.1.15,2013-10-08 01:36:00,
2013-10-07 19:46:00,68.7,63.3,25.97,NNW,328,0.0,2.0,83,0.00,,,0.06,0,Wunderground v.1.15,2013-10-08 01:46:00,
2013-10-07 19:55:00,68.7,63.3,25.98,NW,313,1.0,1.0,83,0.00,,,0.06,0,Wunderground v.1.15,2013-10-08 01:55:00,
2013-10-07 20:00:00,68.7,63.3,25.98,ESE,117,1.0,2.0,83,0.00,,,0.06,0,Wunderground v.1.15,2013-10-08 02:00:00,
2013-10-07 20:11:00,68.7,63.3,25.98,ENE,71,1.0,1.0,83,0.00,,,0.06,0,Wunderground v.1.15,2013-10-08 02:11:00,
2013-10-07 20:21:00,68.7,63.0,25.98,NW,325,0.0,2.0,82,0.00,,,0.06,0,Wunderground v.1.15,2013-10-08 02:21:00,
2013-10-07 20:31:00,68.7,63.3,25.99,East,90,1.0,1.0,83,0.00,,,0.06,0,Wunderground v.1.15,2013-10-08 02:31:00,
2013-10-07 20:40:00,68.7,62.6,25.99,East,79,2.0,2.0,81,0.00,,,0.06,0,Wunderground v.1.15,2013-10-08 02:40:00,
2013-10-07 20:45:00,68.7,63.0,25.99,NNW,347,2.0,2.0,82,0.00,,,0.06,0,Wunderground v.1.15,2013-10-08 02:45:00,
2013-10-07 20:55:00,68.7,63.3,25.99,North,355,0.0,1.0,83,0.00,,,0.06,0,Wunderground v.1.15,2013-10-08 02:55:00,
2013-10-07 21:00:00,68.7,63.3,25.99,North,355,0.0,0.0,83,0.00,,,0.06,0,Wunderground v.1.15,2013-10-08 03:00:00,
2013-10-07 21:10:00,68.5,63.5,25.99,North,355,0.0,0.0,84,0.00,,,0.06,0,Wunderground v.1.15,2013-10-08 03:10:00,
2013-10-07 21:15:00,68.5,63.8,25.99,North,355,0.0,0.0,85,0.00,,,0.06,0,Wunderground v.1.15,2013-10-08 03:15:00,
2013-10-07 21:21:00,68.5,64.1,25.99,North,355,0.0,0.0,86,0.00,,,0.06,0,Wunderground v.1.15,2013-10-08 03:21:00,
2013-10-07 21:30:00,68.2,63.9,25.99,North,355,0.0,0.0,86,0.00,,,0.06,0,Wunderground v.1.15,2013-10-08 03:30:00,
2013-10-07 21:36:00,68.0,64.0,25.99,North,355,0.0,0.0,87,0.00,,,0.06,0,Wunderground v.1.15,2013-10-08 03:36:00,
2013-10-07 21:46:00,67.8,63.8,25.98,North,355,0.0,0.0,87,0.00,,,0.06,0,Wunderground v.1.15,2013-10-08 03:46:00,
2013-10-07 21:56:00,67.8,63.8,25.98,North,355,0.0,0.0,87,0.00,,,0.06,0,Wunderground v.1.15,2013-10-08 03:56:00,
2013-10-07 22:01:00,67.7,63.7,25.99,North,355,0.0,0.0,87,0.00,,,0.07,0,Wunderground v.1.15,2013-10-08 04:01:00,
2013-10-07 22:10:00,67.7,63.7,25.99,North,355,0.0,0.0,87,0.00,,,0.07,0,Wunderground v.1.15,2013-10-08 04:10:00,
2013-10-07 22:16:00,67.5,63.5,25.99,North,355,0.0,0.0,87,0.00,,,0.07,0,Wunderground v.1.15,2013-10-08 04:16:00,
2013-10-07 22:26:00,67.5,63.8,25.99,North,355,0.0,0.0,88,0.00,,,0.07,0,Wunderground v.1.15,2013-10-08 04:26:00,
2013-10-07 22:31:00,67.3,63.9,25.99,North,355,0.0,0.0,89,0.00,,,0.07,0,Wunderground v.1.15,2013-10-08 04:31:00,
2013-10-07 22:36:00,67.3,63.6,25.99,North,355,0.0,0.0,88,0.00,,,0.07,0,Wunderground v.1.15,2013-10-08 04:36:00,
2013-10-07 22:46:00,67.0,63.6,25.99,North,355,0.0,0.0,89,0.00,,,0.07,0,Wunderground v.1.15,2013-10-08 04:46:00,
2013-10-07 22:55:00,67.0,63.6,25.98,North,355,0.0,0.0,89,0.00,,,0.07,0,Wunderground v.1.15,2013-10-08 04:55:00,
2013-10-07 23:00:00,66.8,63.8,25.97,North,355,0.0,0.0,90,0.00,,,0.07,0,Wunderground v.1.15,2013-10-08 05:00:00,
2013-10-07 23:10:00,66.7,64.0,25.97,NNW,329,0.0,0.0,91,0.00,,,0.07,0,Wunderground v.1.15,2013-10-08 05:10:00,
2013-10-07 23:16:00,66.7,64.6,25.97,NNW,327,0.0,1.0,93,0.00,,,0.07,0,Wunderground v.1.15,2013-10-08 05:16:00,
2013-10-07 23:26:00,66.5,65.0,25.97,WNW,295,1.0,2.0,95,0.00,,,0.07,0,Wunderground v.1.15,2013-10-08 05:26:00,
2013-10-07 23:31:00,66.3,64.8,25.97,WNW,295,0.0,0.0,95,0.00,,,0.07,0,Wunderground v.1.15,2013-10-08 05:31:00,
2013-10-07 23:40:00,66.2,65.0,25.96,WNW,295,1.0,1.0,96,0.00,,,0.07,0,Wunderground v.1.15,2013-10-08 05:40:00,
2013-10-07 23:51:00,66.2,65.0,25.96,WNW,295,0.0,0.0,96,0.00,,,0.07,0,Wunderground v.1.15,2013-10-08 05:51:00,